{"data":{"norad_id":56462,"intl_designator":"2023-064Q","name":"STARLINK-6045","alt_names":[],"object_type":"PAYLOAD","status":"ACTIVE","operator":null,"country":"US","launch_date":"2023-05-10","launch_site_code":"AFWTR","launch_vehicle":null,"mission":null,"orbit_class":"UNKNOWN","rcs_meters":null,"size_class":null,"mass_kg":null,"dimensions":null,"purposes":["comms"],"wikipedia_slug":null,"has_3d_model":false,"image_url":null,"decayed_at":null,"tle_current":{"epoch":"2026-09-20T12:58:14.642400Z","epoch_age_seconds":108561,"freshness":"FRESH","line1":"1 56462U 23064Q   26263.54044725  .00000473  00000+0  47440-4 0  9994","line2":"2 56462  69.9996 332.9659 0003459 268.8449  91.2314 14.98332150185428","mean_motion":14.9833215,"eccentricity":0.0003459,"inclination_deg":69.9996,"raan_deg":332.9659,"arg_perigee_deg":268.8449,"mean_anomaly_deg":91.2314,"bstar":4.744e-5,"rev_number":18542,"period_min":96.106861218989,"perigee_km":569.64517283353,"apogee_km":574.45331167592,"semimajor_km":6950.1862422547,"source":"CELESTRAK","updated_at":"2026-09-21T09:00:33.443886Z"}}}